TimeMDT,TemperatureF,Dew PointF,Humidity,Sea Level PressureIn,VisibilityMPH,Wind Direction,Wind SpeedMPH,Gust SpeedMPH,PrecipitationIn,Events,Conditions,WindDirDegrees,DateUTC
12:53 AM,37.9,30.9,76,30.00,10.0,North,3.5,-,N/A,,Clear,10,2011-10-11 06:53:00
1:53 AM,37.0,32.0,82,30.00,10.0,Calm,Calm,-,N/A,,Scattered Clouds,0,2011-10-11 07:53:00
2:53 AM,37.9,32.0,79,29.99,10.0,SSE,5.8,-,N/A,,Overcast,150,2011-10-11 08:53:00
4:53 AM,41.0,33.1,73,29.95,10.0,Calm,Calm,-,N/A,,Overcast,0,2011-10-11 10:53:00
5:53 AM,42.1,34.0,73,29.95,10.0,Calm,Calm,-,N/A,,Overcast,0,2011-10-11 11:53:00
6:53 AM,39.9,36.0,86,29.98,10.0,NE,3.5,-,N/A,,Overcast,40,2011-10-11 12:53:00
8:53 AM,45.0,34.0,65,30.00,10.0,ENE,4.6,-,N/A,,Clear,60,2011-10-11 14:53:00
9:53 AM,50.0,33.1,52,30.00,10.0,Calm,Calm,-,N/A,,Clear,0,2011-10-11 15:53:00
10:53 AM,55.9,30.0,37,29.98,10.0,WSW,9.2,-,N/A,,Clear,240,2011-10-11 16:53:00
11:53 AM,59.0,30.0,33,29.96,10.0,SW,8.1,-,N/A,,Clear,220,2011-10-11 17:53:00
2:53 PM,64.9,32.0,29,29.86,10.0,WSW,18.4,24.2,N/A,,Clear,250,2011-10-11 20:53:00
3:53 PM,64.9,30.0,27,29.85,10.0,WSW,15.0,-,N/A,,Clear,250,2011-10-11 21:53:00
4:53 PM,64.0,30.9,29,29.86,10.0,West,19.6,28.8,N/A,,Clear,270,2011-10-11 22:53:00
5:53 PM,61.0,30.9,32,29.88,10.0,West,17.3,25.3,N/A,,Clear,270,2011-10-11 23:53:00
6:53 PM,57.9,33.1,39,29.94,10.0,WNW,12.7,-,N/A,,Clear,290,2011-10-12 00:53:00
7:53 PM,55.0,33.1,43,29.98,10.0,WNW,9.2,-,N/A,,Clear,290,2011-10-12 01:53:00
8:53 PM,53.1,33.1,47,29.99,10.0,West,6.9,-,N/A,,Clear,280,2011-10-12 02:53:00
9:53 PM,51.1,30.9,46,29.99,10.0,NW,9.2,-,N/A,,Clear,320,2011-10-12 03:53:00
10:53 PM,54.0,28.0,37,29.97,10.0,NNW,15.0,-,N/A,,Clear,330,2011-10-12 04:53:00
11:53 PM,52.0,28.0,40,29.96,10.0,North,5.8,-,N/A,,Clear,350,2011-10-12 05:53:00